| time (UTC) | temp F | wind direction | speed MPH | gust MPH | rain 1hr in | rain 24hr in | rain mn in | humidity % | barometer mb |
| 20260507140517 | 70 | 225 | 7.0 | 15.0 | 0.00 | 0.00 | 0.00 | 54 | 1009.2 |
| 20260507135536 | 70 | 203 | 9.0 | 16.0 | 0.00 | 0.00 | 0.00 | 54 | 1009.3 |
| 20260507134517 | 70 | 203 | 8.0 | 14.0 | 0.00 | 0.00 | 0.00 | 57 | 1009.3 |
| 20260507133516 | 69 | 203 | 9.0 | 20.0 | 0.00 | 0.00 | 0.00 | 58 | 1009.4 |
| 20260507132516 | 69 | 203 | 11.0 | 19.0 | 0.00 | 0.00 | 0.00 | 58 | 1009.6 |
| 20260507131516 | 70 | 203 | 8.0 | 19.0 | 0.00 | 0.00 | 0.00 | 58 | 1009.5 |
| 20260507130536 | 69 | 203 | 9.0 | 19.0 | 0.00 | 0.00 | 0.00 | 57 | 1009.6 |
| 20260507125517 | 69 | 203 | 10.0 | 17.0 | 0.00 | 0.00 | 0.00 | 57 | 1009.6 |
| 20260507124556 | 69 | 203 | 9.0 | 18.0 | 0.00 | 0.00 | 0.00 | 57 | 1009.8 |
| 20260507123558 | 69 | 203 | 9.0 | 18.0 | 0.00 | 0.00 | 0.00 | 58 | 1009.9 |
| 20260507122516 | 69 | 203 | 9.0 | 21.0 | 0.00 | 0.00 | 0.00 | 57 | 1009.9 |
| 20260507121518 | 69 | 203 | 8.0 | 17.0 | 0.00 | 0.00 | 0.00 | 57 | 1009.9 |
| 20260507120516 | 68 | 203 | 8.0 | 16.0 | 0.00 | 0.00 | 0.00 | 57 | 1009.9 |
| 20260507115537 | 68 | 203 | 9.0 | 20.0 | 0.00 | 0.00 | 0.00 | 59 | 1010.1 |
| 20260507114516 | 68 | 225 | 8.0 | 23.0 | 0.00 | 0.00 | 0.00 | 61 | 1010.1 |
| 20260507113516 | 68 | 225 | 10.0 | 19.0 | 0.00 | 0.00 | 0.00 | 61 | 1010.2 |
| 20260507112516 | 67 | 225 | 8.0 | 18.0 | 0.00 | 0.00 | 0.00 | 63 | 1010.1 |
| 20260507111516 | 67 | 225 | 10.0 | 16.0 | 0.00 | 0.00 | 0.00 | 63 | 1010.1 |
| 20260507110518 | 67 | 203 | 8.0 | 17.0 | 0.00 | 0.00 | 0.00 | 64 | 1010.1 |
| 20260507105516 | 67 | 203 | 10.0 | 18.0 | 0.00 | 0.00 | 0.00 | 63 | 1010.1 |
| 20260507104557 | 67 | 225 | 10.0 | 17.0 | 0.00 | 0.00 | 0.00 | 63 | 1010.1 |
| 20260507103517 | 67 | 203 | 8.0 | 19.0 | 0.00 | 0.00 | 0.00 | 63 | 1010.0 |
| 20260507102516 | 67 | 180 | 8.0 | 17.0 | 0.00 | 0.00 | 0.00 | 64 | 1010.1 |
| 20260507101536 | 66 | 203 | 7.0 | 14.0 | 0.00 | 0.00 | 0.00 | 64 | 1010.1 |
| 20260507100516 | 66 | 203 | 8.0 | 17.0 | 0.00 | 0.00 | 0.00 | 63 | 1010.1 |
| 20260507095516 | 66 | 225 | 10.0 | 22.0 | 0.00 | 0.00 | 0.00 | 62 | 1010.1 |
| 20260507094536 | 67 | 225 | 8.0 | 16.0 | 0.00 | 0.00 | 0.00 | 62 | 1010.1 |
| 20260507093516 | 67 | 225 | 7.0 | 16.0 | 0.00 | 0.00 | 0.00 | 63 | 1010.0 |
| 20260507092516 | 66 | 225 | 6.0 | 10.0 | 0.00 | 0.00 | 0.00 | 65 | 1010.1 |
| 20260507091516 | 66 | 180 | 9.0 | 18.0 | 0.00 | 0.00 | 0.00 | 67 | 1010.0 |
| 20260507090516 | 66 | 180 | 9.0 | 16.0 | 0.00 | 0.00 | 0.00 | 69 | 1010.0 |
| 20260507085517 | 65 | 158 | 9.0 | 14.0 | 0.00 | 0.00 | 0.00 | 71 | 1010.0 |
| 20260507084517 | 65 | 180 | 7.0 | 15.0 | 0.00 | 0.00 | 0.00 | 71 | 1009.8 |
| 20260507083517 | 65 | 180 | 7.0 | 15.0 | 0.00 | 0.00 | 0.00 | 72 | 1009.7 |
| 20260507082517 | 65 | 180 | 7.0 | 12.0 | 0.00 | 0.00 | 0.00 | 73 | 1009.7 |
| 20260507081537 | 64 | 180 | 8.0 | 14.0 | 0.00 | 0.00 | 0.00 | 74 | 1009.7 |
| 20260507080516 | 64 | 158 | 8.0 | 14.0 | 0.00 | 0.00 | 0.00 | 76 | 1009.7 |
| 20260507075516 | 63 | 158 | 6.0 | 11.0 | 0.00 | 0.00 | 0.00 | 78 | 1009.5 |
| 20260507074516 | 62 | 158 | 7.0 | 13.0 | 0.00 | 0.00 | 0.00 | 80 | 1009.4 |
| 20260507073516 | 61 | 158 | 8.0 | 12.0 | 0.00 | 0.00 | 0.00 | 81 | 1009.3 |
| 20260507072517 | 60 | 158 | 8.0 | 13.0 | 0.00 | 0.00 | 0.00 | 82 | 1009.2 |
| 20260507071536 | 60 | 135 | 7.0 | 11.0 | 0.00 | 0.00 | 0.00 | 83 | 1009.3 |
| 20260507070516 | 59 | 135 | 7.0 | 11.0 | 0.00 | 0.00 | 0.00 | 84 | 1009.2 |
| 20260507065517 | 58 | 158 | 7.0 | 11.0 | 0.00 | 0.00 | 0.00 | 85 | 1009.1 |
| 20260507064516 | 58 | 158 | 7.0 | 9.0 | 0.00 | 0.00 | 0.00 | 86 | 1009.0 |
| 20260507063536 | 57 | 158 | 6.0 | 9.0 | 0.00 | 0.00 | 0.00 | 86 | 1008.9 |
| 20260507062517 | 56 | 158 | 4.0 | 8.0 | 0.00 | 0.00 | 0.00 | 87 | 1008.9 |
| 20260507061518 | 56 | 158 | 6.0 | 9.0 | 0.00 | 0.00 | 0.00 | 87 | 1008.9 |
| 20260507060538 | 56 | 135 | 6.0 | 10.0 | 0.00 | 0.00 | 0.00 | 86 | 1008.7 |
| 20260507055518 | 56 | 135 | 4.0 | 10.0 | 0.00 | 0.00 | 0.00 | 86 | 1008.6 |
| 20260507054518 | 56 | 158 | 6.0 | 10.0 | 0.00 | 0.00 | 0.00 | 86 | 1008.4 |
| 20260507053517 | 56 | 158 | 5.0 | 8.0 | 0.00 | 0.00 | 0.00 | 86 | 1008.2 |
| 20260507052518 | 57 | 158 | 6.0 | 10.0 | 0.00 | 0.00 | 0.00 | 86 | 1008.3 |
| 20260507051517 | 57 | 158 | 5.0 | 8.0 | 0.00 | 0.00 | 0.00 | 86 | 1008.3 |
| 20260507050517 | 57 | 180 | 4.0 | 7.0 | 0.00 | 0.00 | 0.00 | 86 | 1008.2 |
| 20260507045517 | 57 | 158 | 5.0 | 8.0 | 0.00 | 0.00 | 0.00 | 86 | 1008.2 |
| 20260507044518 | 57 | 158 | 6.0 | 10.0 | 0.00 | 0.00 | 0.00 | 86 | 1008.2 |
| 20260507043518 | 57 | 158 | 5.0 | 9.0 | 0.00 | 0.00 | 0.00 | 86 | 1008.0 |
| 20260507042557 | 57 | 158 | 7.0 | 12.0 | 0.00 | 0.00 | 0.00 | 87 | 1008.0 |
| 20260507041538 | 57 | 158 | 7.0 | 13.0 | 0.00 | 0.00 | 0.00 | 87 | 1007.9 |
| 20260507040517 | 56 | 135 | 10.0 | 14.0 | 0.00 | 0.00 | 0.00 | 87 | 1007.8 |
| 20260507035517 | 56 | 135 | 7.0 | 11.0 | 0.00 | 0.00 | 0.00 | 87 | 1007.8 |
| 20260507034517 | 56 | 158 | 6.0 | 11.0 | 0.00 | 0.00 | 0.00 | 87 | 1008.0 |
| 20260507033519 | 56 | 158 | 6.0 | 11.0 | 0.00 | 0.00 | 0.00 | 87 | 1008.1 |
| 20260507032518 | 55 | 135 | 6.0 | 10.0 | 0.00 | 0.00 | 0.00 | 87 | 1008.1 |
| 20260507031519 | 55 | 158 | 6.0 | 11.0 | 0.00 | 0.00 | 0.00 | 87 | 1008.2 |
| 20260507030517 | 55 | 158 | 5.0 | 9.0 | 0.00 | 0.00 | 0.00 | 87 | 1008.1 |
| 20260507025517 | 55 | 135 | 7.0 | 11.0 | 0.00 | 0.00 | 0.00 | 86 | 1008.0 |
| 20260507024517 | 55 | 135 | 5.0 | 8.0 | 0.00 | 0.00 | 0.00 | 86 | 1007.9 |
| 20260507023518 | 55 | 135 | 4.0 | 10.0 | 0.00 | 0.00 | 0.00 | 86 | 1007.9 |
| 20260507022517 | 55 | 135 | 4.0 | 8.0 | 0.00 | 0.00 | 0.00 | 85 | 1007.8 |
| 20260507021537 | 55 | 135 | 4.0 | 10.0 | 0.00 | 0.00 | 0.00 | 85 | 1007.9 |
| 20260507020517 | 56 | 135 | 4.0 | 8.0 | 0.00 | 0.00 | 0.00 | 84 | 1007.9 |
| 20260507015518 | 56 | 135 | 3.0 | 6.0 | 0.00 | 0.00 | 0.00 | 84 | 1008.0 |
| 20260507014517 | 56 | 135 | 4.0 | 8.0 | 0.00 | 0.00 | 0.00 | 84 | 1008.0 |
| 20260507013517 | 56 | 135 | 5.0 | 9.0 | 0.00 | 0.00 | 0.00 | 84 | 1008.1 |
| 20260507012517 | 56 | 158 | 4.0 | 6.0 | 0.00 | 0.00 | 0.00 | 83 | 1008.2 |
| 20260507011517 | 56 | 158 | 3.0 | 6.0 | 0.00 | 0.00 | 0.00 | 83 | 1008.3 |
| 20260507010517 | 57 | 135 | 3.0 | 7.0 | 0.00 | 0.00 | 0.00 | 82 | 1008.4 |
| 20260507005517 | 57 | 135 | 2.0 | 4.0 | 0.00 | 0.00 | 0.00 | 82 | 1008.5 |
| 20260507004517 | 57 | 158 | 3.0 | 7.0 | 0.00 | 0.00 | 0.00 | 82 | 1008.7 |
| 20260507003517 | 57 | 158 | 4.0 | 6.0 | 0.00 | 0.00 | 0.00 | 81 | 1008.7 |
| 20260507002517 | 57 | 158 | 3.0 | 6.0 | 0.00 | 0.00 | 0.00 | 80 | 1008.8 |
| 20260507001517 | 58 | 158 | 3.0 | 6.0 | 0.00 | 0.00 | 0.00 | 80 | 1009.0 |
| 20260507000518 | 58 | 158 | 4.0 | 7.0 | 0.00 | 0.00 | 0.00 | 79 | 1009.0 |
| 20260506235517 | 58 | 158 | 3.0 | 5.0 | 0.00 | 0.00 | 0.00 | 79 | 1009.0 |
| 20260506234517 | 58 | 158 | 3.0 | 6.0 | 0.00 | 0.00 | 0.00 | 79 | 1009.0 |
| 20260506233518 | 59 | 180 | 4.0 | 8.0 | 0.00 | 0.00 | 0.00 | 78 | 1009.1 |
| 20260506232517 | 59 | 158 | 3.0 | 7.0 | 0.00 | 0.00 | 0.00 | 77 | 1009.1 |
| 20260506231518 | 59 | 158 | 3.0 | 5.0 | 0.00 | 0.00 | 0.00 | 77 | 1009.2 |
| 20260506230517 | 59 | 158 | 3.0 | 6.0 | 0.00 | 0.00 | 0.00 | 77 | 1009.2 |
| 20260506225517 | 59 | 158 | 4.0 | 7.0 | 0.00 | 0.00 | 0.00 | 76 | 1009.3 |
| 20260506224517 | 60 | 158 | 4.0 | 6.0 | 0.00 | 0.00 | 0.00 | 76 | 1009.2 |
| 20260506223518 | 60 | 158 | 3.0 | 6.0 | 0.00 | 0.00 | 0.00 | 76 | 1009.3 |
| 20260506222517 | 61 | 158 | 1.0 | 4.0 | 0.00 | 0.00 | 0.00 | 75 | 1009.3 |
| 20260506221517 | 61 | 180 | 4.0 | 6.0 | 0.00 | 0.00 | 0.00 | 74 | 1009.3 |
| 20260506220518 | 61 | 180 | 3.0 | 5.0 | 0.00 | 0.00 | 0.00 | 73 | 1009.2 |
| 20260506215537 | 62 | 180 | 3.0 | 5.0 | 0.00 | 0.00 | 0.00 | 73 | 1009.3 |
| 20260506214517 | 62 | 180 | 2.0 | 4.0 | 0.00 | 0.00 | 0.00 | 72 | 1009.3 |
| 20260506213557 | 62 | 180 | 2.0 | 3.0 | 0.00 | 0.00 | 0.00 | 72 | 1009.2 |
| 20260506212517 | 62 | 180 | 2.0 | 4.0 | 0.00 | 0.00 | 0.00 | 72 | 1009.2 |
| 20260506211517 | 62 | 203 | 1.0 | 4.0 | 0.00 | 0.00 | 0.00 | 71 | 1009.2 |
| 20260506210537 | 63 | 203 | 2.0 | 5.0 | 0.00 | 0.00 | 0.00 | 70 | 1009.1 |
| 20260506205518 | 63 | 180 | 2.0 | 6.0 | 0.00 | 0.00 | 0.00 | 70 | 1009.0 |
| 20260506204517 | 63 | 203 | 2.0 | 6.0 | 0.00 | 0.00 | 0.00 | 70 | 1008.9 |
| 20260506203518 | 63 | 203 | 2.0 | 7.0 | 0.00 | 0.00 | 0.00 | 69 | 1008.8 |
| 20260506202517 | 64 | 180 | 1.0 | 5.0 | 0.00 | 0.00 | 0.00 | 69 | 1008.8 |
| 20260506201517 | 64 | 225 | 4.0 | 9.0 | 0.00 | 0.00 | 0.00 | 69 | 1008.7 |
| 20260506200517 | 64 | 248 | 3.0 | 9.0 | 0.00 | 0.00 | 0.00 | 68 | 1008.7 |
| 20260506195518 | 64 | 225 | 4.0 | 10.0 | 0.00 | 0.00 | 0.00 | 68 | 1008.6 |
| 20260506194517 | 64 | 225 | 4.0 | 12.0 | 0.00 | 0.00 | 0.00 | 67 | 1008.5 |
| 20260506193517 | 64 | 225 | 5.0 | 11.0 | 0.00 | 0.00 | 0.00 | 66 | 1008.3 |
| 20260506192517 | 65 | 225 | 7.0 | 13.0 | 0.00 | 0.00 | 0.00 | 64 | 1008.2 |
| 20260506191517 | 65 | 248 | 5.0 | 12.0 | 0.00 | 0.00 | 0.00 | 63 | 1008.1 |
| 20260506190517 | 66 | 225 | 6.0 | 13.0 | 0.00 | 0.00 | 0.00 | 62 | 1008.0 |
| 20260506185517 | 66 | 248 | 6.0 | 12.0 | 0.00 | 0.00 | 0.00 | 60 | 1008.1 |
| 20260506184517 | 67 | 248 | 7.0 | 13.0 | 0.00 | 0.00 | 0.00 | 59 | 1008.0 |
| 20260506183517 | 67 | 248 | 8.0 | 17.0 | 0.00 | 0.00 | 0.00 | 58 | 1008.0 |
| 20260506182517 | 68 | 248 | 7.0 | 13.0 | 0.00 | 0.00 | 0.00 | 57 | 1007.9 |
| 20260506181517 | 69 | 248 | 7.0 | 13.0 | 0.00 | 0.00 | 0.00 | 56 | 1007.9 |
| 20260506180517 | 69 | 225 | 5.0 | 11.0 | 0.00 | 0.00 | 0.00 | 54 | 1007.8 |
| 20260506175517 | 70 | 270 | 6.0 | 13.0 | 0.00 | 0.00 | 0.00 | 48 | 1007.9 |
| 20260506174517 | 70 | 225 | 7.0 | 12.0 | 0.00 | 0.00 | 0.00 | 45 | 1007.9 |
| 20260506173517 | 70 | 225 | 8.0 | 16.0 | 0.00 | 0.00 | 0.00 | 45 | 1008.0 |
| 20260506172517 | 71 | 225 | 8.0 | 18.0 | 0.00 | 0.00 | 0.00 | 43 | 1008.0 |
| 20260506171518 | 71 | 225 | 6.0 | 12.0 | 0.00 | 0.00 | 0.00 | 42 | 1008.1 |
| 20260506170517 | 71 | 225 | 8.0 | 15.0 | 0.00 | 0.00 | 0.00 | 41 | 1008.1 |
| 20260506165518 | 72 | 248 | 7.0 | 19.0 | 0.00 | 0.00 | 0.00 | 41 | 1008.1 |
| 20260506164517 | 72 | 225 | 7.0 | 13.0 | 0.00 | 0.00 | 0.00 | 40 | 1008.0 |
| 20260506163516 | 72 | 270 | 7.0 | 14.0 | 0.00 | 0.00 | 0.00 | 40 | 1008.1 |
| 20260506162517 | 72 | 225 | 6.0 | 14.0 | 0.00 | 0.00 | 0.00 | 40 | 1008.1 |
| 20260506161517 | 72 | 225 | 6.0 | 12.0 | 0.00 | 0.00 | 0.00 | 40 | 1008.3 |
| 20260506160517 | 72 | 225 | 7.0 | 15.0 | 0.00 | 0.00 | 0.00 | 40 | 1008.2 |
| 20260506155517 | 72 | 270 | 8.0 | 14.0 | 0.00 | 0.00 | 0.00 | 39 | 1008.3 |
| 20260506154517 | 72 | 225 | 7.0 | 16.0 | 0.00 | 0.00 | 0.00 | 40 | 1008.3 |
| 20260506153517 | 72 | 248 | 8.0 | 14.0 | 0.00 | 0.00 | 0.00 | 40 | 1008.5 |
| 20260506152557 | 73 | 248 | 9.0 | 18.0 | 0.00 | 0.00 | 0.00 | 40 | 1008.6 |
| 20260506151517 | 73 | 225 | 7.0 | 16.0 | 0.00 | 0.00 | 0.00 | 40 | 1008.7 |
| 20260506150516 | 73 | 225 | 7.0 | 13.0 | 0.00 | 0.00 | 0.00 | 40 | 1008.8 |
| 20260506145558 | 72 | 270 | 8.0 | 16.0 | 0.00 | 0.00 | 0.00 | 40 | 1008.9 |
| 20260506144516 | 72 | 248 | 6.0 | 13.0 | 0.00 | 0.00 | 0.00 | 41 | 1009.1 |
| 20260506143516 | 72 | 248 | 9.0 | 15.0 | 0.00 | 0.00 | 0.00 | 41 | 1009.3 |
| 20260506142517 | 73 | 248 | 9.0 | 14.0 | 0.00 | 0.00 | 0.00 | 41 | 1009.4 |
| 20260506141516 | 73 | 270 | 5.0 | 12.0 | 0.00 | 0.00 | 0.00 | 41 | 1009.6 |